This demonstration page uses our WeatherBlox Daily Observations layout. Learn more.

Left ArrowRight Arrow

44.8408, -93.29828

Hourly Observations for August 4, 2019

Temp ( °F °C ) Dew Point ( °F °C ) Humidity (%) Winds ( mph kmh ) Pressure ( in mb ) Visibility ( mi km ) Precip ( " mm )
12:48 am 00:48 Mostly Clear 70 21 66 19 88 88 SE 3 6 30.04 1017 10 16 0.00 0.00
2:35 am 02:35 Clear 73 22.8 67 19.4 81 81 Calm 30.03 1017 10 16 0.00 0.00
2:53 am 02:53 Mostly Clear 72 22.2 68 20 87 87 Calm 30.04 1017 10 16 0.00 0.00
3:53 am 03:53 Mostly Clear 72 22.2 67 19.4 84 84 Calm 30.04 1017 10 16 0.00 0.00
4:53 am 04:53 Clear 72 22.2 67 19.4 84 84 SW 5 7 30.04 1017 10 16 0.00 0.00
5:53 am 05:53 Mostly Clear 71 21.7 67 19.4 87 87 SSW 3 6 30.05 1018 10 16 0.00 0.00
6:53 am 06:53 Mostly Sunny 71 21.7 67 19.4 87 87 Calm 30.05 1018 9 14 0.00 0.00
7:53 am 07:53 Mostly Sunny 74 23.3 66 18.9 76 76 SW 3 6 30.06 1018 10 16 0.00 0.00
8:53 am 08:53 Mostly Sunny 76 24.4 65 18.3 69 69 SW 3 6 30.05 1018 10 16 0.00 0.00
9:53 am 09:53 Mostly Sunny 79 26.1 64 17.8 60 60 Calm 30.04 1017 10 16 0.00 0.00
10:53 am 10:53 Mostly Sunny 81 27.2 65 18.3 58 58 SSE 6 9 30.03 1017 10 16 0.00 0.00
11:53 am 11:53 Partly Cloudy 83 28.3 63 17.2 51 51 WSW 5 7 30.02 1017 10 16 0.00 0.00
12:53 pm 12:53 Mostly Cloudy 85 29.4 63 17.2 48 48 SSW 9 15 30.01 1016 10 16 0.00 0.00
1:53 pm 13:53 Mostly Cloudy 86 30 63 17.2 46 46 SW 9 15 30.01 1016 10 16 0.00 0.00
2:53 pm 14:53 Mostly Cloudy 85 29.4 62 16.7 46 46 VRB 5 7 30.00 1016 10 16 0.00 0.00
3:53 pm 15:53 Mostly Cloudy 86 30 62 16.7 45 45 WSW 7 11 29.98 1015 10 16 0.00 0.00
4:53 pm 16:53 Mostly Cloudy 86 30 62 16.7 45 45 SSW 8 13 29.98 1015 10 16 0.00 0.00
5:53 pm 17:53 Mostly Cloudy 86 30 64 17.8 48 48 VRB 7 11 29.96 1015 10 16 0.00 0.00
6:53 pm 18:53 Mostly Cloudy 85 29.4 63 17.2 48 48 SW 7 11 29.94 1014 10 16 0.00 0.00
7:53 pm 19:53 Partly Cloudy 84 28.9 63 17.2 49 49 SW 9 15 29.93 1013 10 16 0.00 0.00
8:53 pm 20:53 Mostly Clear 83 28.3 65 18.3 55 55 SSW 6 9 29.92 1013 10 16 0.00 0.00
9:53 pm 21:53 Clear 81 27.2 66 18.9 61 61 SSW 5 7 29.94 1014 10 16 0.00 0.00
10:53 pm 22:53 Clear 80 26.7 67 19.4 64 64 S 3 6 29.95 1014 10 16 0.00 0.00
11:53 pm 23:53 Clear 76 24.4 67 19.4 74 74 SSE 6 9 29.94 1014 10 16 0.00 0.00

Powered by AerisWeather